Temperature
8 8 8 8 8 8 8 8 8 8 8 8 8 7 7 7 6 6 6 5 5 5 4 4 3 3 3 3 3 2 2 2 1 2 2 2 2 2 2 2 2 2 2
8 8 8 8 8 8 8 7 7 8 7 7 7 7 6 6 6 6 5 5 4 4 4 3 3 3 3 2 2 2 2 1 1 1 2 2 2 2 2 2 2 2 1
7 7 7 7 7 7 7 7 7 7 7 7 6 6 6 6 5 5 5 4 4 3 3 3 3 2 2 2 2 2 1 1 1 1 1 1 1 1 1 1 1 1 1
6 7 7 7 7 7 7 6 6 6 6 6 6 6 5 5 5 4 4 4 3 3 3 2 2 2 2 2 2 1 1 1 1 1 1 1 1 1 1 1 1 1 1
6 6 6 6 6 6 6 6 6 6 6 5 5 5 5 4 4 3 3 3 3 3 2 2 2 2 2 1 1 1 1 1 1 0 0 0 0 0 -0 -0 -0 0 1
5 5 5 5 5 5 5 5 5 5 5 5 4 4 4 3 3 3 3 2 2 2 2 2 2 2 1 1 1 1 0 0 0 0 -0 -0 -0 -1 -1 -1 -1 -1 -0
4 4 5 4 4 4 4 5 5 4 4 4 4 3 3 3 3 2 2 2 2 2 2 1 1 1 1 1 1 0 0 0 -0 -0 -1 -1 -1 -1 -1 -1 -1 -1 -1
4 4 4 4 4 4 4 4 4 4 3 3 3 3 2 2 2 2 1 1 1 1 1 1 1 1 1 1 0 0 0 0 -0 -0 -1 -1 -1 -1 -1 -1 -1 -1 -1
3 3 3 3 3 3 3 3 3 3 3 3 2 2 2 2 1 1 1 1 1 1 1 1 0 0 0 0 0 0 0 -0 -0 -1 -1 -1 -1 -1 -2 -2 -2 -2 -2
2 2 2 2 2 2 2 2 2 2 2 2 2 1 1 1 1 0 0 0 0 0 0 0 0 -0 -0 -0 -0 -0 -0 -0 -0 -1 -1 -1 -1 -1 -1 -2 -2 -2 -3
1 1 1 1 1 1 1 1 1 1 1 1 1 1 1 0 0 -0 -0 -0 -0 -0 -0 -0 -0 -0 -0 -0 -0 -1 -1 -1 -1 -1 -1 -1 -1 -1 -1 -2 -2 -3 -3
1 1 1 1 1 1 1 0 0 0 0 0 0 0 -0 -0 -0 -0 -1 -1 -1 -1 -1 -1 -1 -1 -1 -1 -1 -1 -1 -1 -1 -1 -1 -1 -1 -1 -2 -2 -2 -2 -3
0 0 0 0 0 -0 -0 -0 -0 -0 -0 -1 -0 -1 -1 -1 -1 -1 -1 -1 -1 -1 -1 -1 -1 -1 -1 -1 -1 -1 -1 -1 -1 -2 -2 -2 -2 -2 -2 -2 -2 -2 -2
-0 -0 -1 -1 -1 -1 -1 -1 -1 -1 -1 -1 -1 -1 -1 -2 -2 -2 -2 -2 -1 -1 -1 -1 -1 -1 -1 -1 -1 -2 -2 -2 -2 -2 -2 -2 -2 -2 -2 -2 -3 -3 -3
-1 -1 -1 -1 -1 -1 -1 -2 -2 -2 -2 -2 -2 -2 -2 -2 -2 -2 -2 -2 -2 -2 -2 -2 -1 -1 -1 -1 -2 -2 -2 -2 -2 -2 -2 -2 -3 -3 -3 -3 -3 -3 -3
-2 -2 -2 -2 -2 -2 -2 -2 -3 -3 -3 -2 -2 -2 -2 -2 -2 -2 -2 -2 -2 -2 -2 -2 -2 -2 -2 -2 -2 -2 -2 -2 -2 -2 -3 -3 -3 -3 -3 -3 -3 -3 -3
-3 -3 -3 -3 -3 -3 -3 -3 -3 -3 -3 -3 -3 -3 -3 -2 -2 -2 -2 -2 -2 -2 -2 -2 -2 -2 -3 -3 -3 -3 -3 -3 -3 -3 -3 -3 -3 -3 -3 -3 -3 -3 -3
-3 -3 -3 -3 -3 -3 -3 -3 -4 -3 -3 -3 -3 -3 -3 -3 -3 -3 -3 -3 -3 -3 -3 -3 -3 -3 -3 -3 -3 -3 -3 -3 -3 -3 -3 -4 -4 -4 -3 -3 -3 -4 -4
-4 -4 -4 -4 -4 -4 -4 -4 -4 -4 -4 -4 -4 -4 -4 -4 -4 -4 -4 -3 -3 -3 -3 -3 -3 -3 -4 -4 -4 -4 -4 -4 -4 -4 -4 -4 -4 -4 -4 -4 -4 -4 -4
-4 -4 -4 -4 -4 -5 -5 -5 -5 -5 -5 -5 -4 -4 -4 -4 -4 -4 -4 -4 -4 -4 -4 -4 -4 -4 -4 -4 -4 -4 -4 -4 -4 -4 -4 -4 -4 -4 -4 -4 -4 -4 -4
-5 -5 -5 -5 -5 -5 -5 -5 -5 -5 -5 -5 -5 -5 -5 -5 -5 -5 -5 -5 -5 -4 -4 -4 -4 -4 -4 -4 -4 -4 -4 -4 -4 -4 -4 -4 -4 -4 -4 -4 -4 -4 -4
-5 -5 -5 -5 -5 -6 -6 -6 -6 -6 -6 -6 -6 -6 -6 -6 -5 -5 -5 -5 -5 -5 -5 -5 -5 -5 -5 -4 -4 -4 -4 -4 -4 -4 -4 -4 -4 -4 -4 -4 -4 -4 -4
-6 -6 -6 -6 -6 -6 -6 -6 -6 -6 -6 -6 -6 -6 -6 -6 -6 -6 -6 -6 -5 -5 -5 -5 -5 -5 -5 -5 -5 -5 -4 -4 -5 -5 -4 -4 -4 -4 -4 -4 -4 -4 -4
-6 -6 -6 -6 -6 -6 -7 -7 -7 -7 -7 -7 -7 -7 -7 -7 -6 -6 -6 -6 -6 -6 -6 -5 -5 -5 -5 -5 -5 -5 -5 -5 -5 -4 -4 -4 -4 -4 -4 -4 -4 -4 -4
-7 -7 -7 -7 -7 -7 -7 -7 -7 -7 -7 -7 -7 -7 -7 -7 -7 -7 -7 -6 -6 -6 -6 -6 -6 -6 -5 -5 -5 -5 -5 -5 -4 -4 -4 -4 -4 -4 -4 -4 -4 -4 -4
-7 -7 -7 -7 -7 -8 -8 -8 -8 -8 -8 -8 -8 -7 -7 -7 -7 -7 -7 -7 -7 -6 -6 -6 -6 -6 -6 -5 -5 -5 -5 -5 -5 -4 -4 -4 -4 -4 -4 -4 -4 -4 -4
Wind_Speed
6 6 6 6 5 5 5 5 5 4 4 4 3 3 3 2 2 1 1 1 1 2 2 2 3 3 3 3 3 4 4 5 9 10 7 8 10 10 13 14 15 14 15
6 6 5 5 5 5 5 4 4 4 4 3 3 3 3 2 2 2 1 1 1 2 2 3 4 4 4 4 4 4 5 5 7 11 10 9 10 10 10 11 12 14 14
5 6 6 6 5 5 4 4 4 4 3 3 3 3 3 2 2 2 2 2 2 2 3 3 4 4 5 4 5 5 5 6 6 8 10 9 8 8 9 10 11 10 13
5 5 5 5 5 4 4 4 4 3 3 3 3 2 2 2 2 2 1 2 2 3 3 3 4 4 5 5 5 5 6 7 7 8 9 9 8 8 8 9 10 9 10
5 4 4 4 4 4 4 3 3 3 2 2 2 2 2 2 2 1 1 2 2 3 3 4 4 5 6 6 6 6 6 6 6 7 8 9 8 9 9 7 10 10 9
5 5 4 4 4 4 3 3 3 3 2 2 2 2 2 1 1 2 2 2 2 3 4 4 5 4 6 8 10 10 9 7 7 7 7 9 10 9 9 9 9 10 8
5 5 4 4 4 3 3 3 3 2 2 2 1 2 1 1 1 2 3 2 2 3 3 3 4 5 6 5 8 10 10 11 10 7 8 9 10 9 10 10 9 10 9
5 4 4 4 4 3 3 3 2 2 2 2 1 1 1 1 1 2 3 2 2 3 3 3 4 4 5 6 6 6 7 7 9 7 7 8 8 8 8 8 9 9 8
5 4 3 3 3 3 3 2 2 2 2 1 1 1 0 1 2 3 3 1 2 3 4 4 4 4 8 9 6 7 8 8 10 12 13 13 14 14 11 7 7 7 8
4 3 3 3 3 3 3 2 2 2 2 1 1 1 0 0 2 3 4 1 2 3 3 3 5 7 9 9 5 6 8 8 8 9 9 10 10 10 11 6 5 6 7
3 3 3 3 3 3 3 2 2 2 2 1 1 1 1 1 2 3 4 2 2 3 3 3 4 9 10 10 8 5 9 9 7 7 7 7 6 5 6 6 5 4 6
4 4 4 3 3 2 3 2 2 2 2 1 1 1 1 2 3 3 5 5 5 3 4 4 5 9 10 10 8 9 11 9 5 5 6 6 6 6 6 6 7 7 7
4 4 3 3 3 3 2 2 2 2 1 1 1 1 2 2 2 4 5 6 6 4 4 7 8 9 8 7 8 10 8 5 5 5 6 6 5 6 6 6 6 7 7
4 3 3 3 3 3 2 2 2 1 1 1 1 1 2 2 2 2 3 3 4 4 4 6 7 7 6 7 7 6 5 5 5 5 6 5 5 5 5 5 5 6 5
4 3 3 3 3 3 3 2 2 1 1 1 1 1 1 2 4 6 4 3 3 3 4 3 3 4 4 5 5 5 5 5 6 5 5 6 6 6 6 5 5 5 5
3 3 2 2 2 2 2 2 3 3 4 4 3 3 3 4 5 6 6 5 5 5 4 3 3 4 4 5 5 5 5 5 6 6 6 6 6 6 6 6 5 5 5
3 2 2 2 2 2 1 1 2 3 5 4 4 4 4 5 5 5 6 5 4 4 2 2 3 4 4 5 5 5 5 6 6 5 6 6 6 6 6 6 6 5 5
3 2 2 2 2 2 1 1 1 1 2 3 4 5 5 5 5 6 5 4 3 3 2 3 4 4 4 5 5 5 6 6 6 6 6 6 6 6 6 6 5 6 6
2 1 2 2 2 2 1 1 1 2 2 2 3 3 5 5 5 5 5 3 2 3 3 3 4 4 5 5 5 5 6 6 6 6 6 6 6 6 6 5 5 7 6
1 2 2 1 2 2 2 1 2 2 2 2 2 3 3 3 3 3 3 3 3 3 4 4 4 4 4 5 5 5 6 6 6 6 6 6 6 5 5 6 5 5 5
1 1 3 2 2 2 2 1 1 2 2 2 2 3 4 2 2 3 3 3 3 3 4 4 4 4 4 5 5 5 6 6 6 6 6 6 5 5 5 4 5 5 5
1 1 1 1 1 2 2 2 2 2 2 2 2 3 5 3 2 2 3 3 3 3 4 4 4 4 5 5 5 5 6 6 6 6 6 6 5 5 5 4 4 4 4
1 1 1 1 1 2 2 2 2 2 2 2 2 2 3 2 2 3 3 3 3 4 5 5 4 5 7 7 7 6 5 6 6 6 6 6 5 5 4 4 5 4 4
0 0 1 1 1 1 2 2 2 2 2 2 2 2 2 3 3 3 3 3 4 5 5 6 6 7 8 8 8 8 8 9 9 7 7 5 5 4 4 4 4 4 3
0 1 1 1 1 2 2 2 2 2 2 2 2 2 3 3 3 3 3 4 4 5 6 7 7 7 9 10 10 10 11 11 9 7 6 4 3 3 3 3 3 3 3
0 1 1 1 1 2 2 2 2 2 2 3 3 3 3 3 3 3 3 4 4 5 6 7 8 9 10 9 10 11 11 10 9 8 5 3 3 3 3 2 3 2 3
Wind_Direction
152 152 151 153 150 148 149 150 146 144 150 158 167 171 174 175 166 170 195 194 248 288 300 305 305 307 306 299 297 294 290 287 290 299 300 310 313 313 318 319 318 316 315
148 147 148 145 145 147 149 145 142 147 152 162 163 173 184 186 182 179 194 228 249 273 291 301 302 308 305 301 298 293 291 289 292 301 307 313 311 313 316 316 320 320 316
137 142 143 146 147 148 149 146 143 146 151 154 160 178 192 195 189 193 206 234 259 274 287 290 294 300 300 302 299 295 295 299 295 299 305 309 311 317 319 316 318 316 317
124 129 137 143 147 147 143 142 145 146 153 162 178 189 195 200 200 200 213 255 271 283 286 288 291 286 287 292 296 294 300 303 303 303 305 311 314 316 321 323 322 322 317
117 120 126 127 128 130 133 139 140 145 154 163 172 184 186 193 208 210 238 263 270 288 290 289 288 294 301 308 308 306 308 304 306 307 309 314 318 326 326 321 320 319 313
109 116 114 115 117 121 127 133 134 135 135 139 159 169 176 212 259 290 304 272 280 284 291 295 295 291 304 315 316 316 313 306 307 305 306 311 314 317 318 320 321 323 315
101 104 112 117 118 119 122 120 124 124 117 122 139 145 162 215 262 291 312 314 284 284 287 292 303 308 311 301 309 314 311 310 307 304 302 304 306 313 316 317 318 315 305
98 97 97 107 114 113 114 117 111 111 121 124 111 123 144 269 317 317 315 319 295 295 293 289 294 299 304 314 311 310 305 304 302 300 291 293 299 304 305 306 306 309 301
91 90 86 96 106 108 109 110 107 106 101 108 121 111 121 293 314 323 339 299 300 298 297 302 306 296 309 322 321 313 311 309 311 308 304 304 309 317 323 324 324 325 317
88 84 77 81 95 104 109 108 102 105 106 102 85 72 66 281 319 335 343 320 310 312 306 304 306 311 315 322 317 311 311 312 316 319 317 316 315 317 322 317 311 315 314
70 78 77 69 78 88 92 92 102 96 92 90 77 37 29 357 333 337 341 334 315 317 313 313 311 316 318 319 321 309 310 319 317 318 318 318 320 323 323 317 309 305 302
60 68 70 68 70 72 80 78 84 95 98 90 79 31 4 349 344 327 338 343 342 322 309 309 312 319 320 321 323 323 325 330 325 322 321 320 323 324 322 318 311 302 292
55 62 60 59 61 66 75 79 81 83 93 73 70 25 347 345 339 339 334 334 336 332 320 321 322 322 323 322 327 332 335 330 325 322 318 315 316 315 318 321 319 316 311
62 57 55 57 54 50 52 62 79 80 79 41 20 345 330 331 331 330 320 319 326 330 329 328 331 327 330 330 336 336 333 328 326 314 314 314 320 326 327 325 326 330 328
61 55 49 50 53 49 42 38 42 25 352 329 291 273 291 302 314 331 336 324 328 330 342 341 340 340 344 343 339 336 335 335 331 326 323 323 325 327 325 326 326 330 330
61 48 41 41 45 50 47 31 25 11 1 360 345 333 324 320 326 334 338 344 349 358 5 348 337 334 334 332 332 332 333 332 329 326 325 326 327 325 324 326 328 329 328
64 40 23 23 28 31 34 35 13 7 9 5 357 352 348 344 344 341 345 351 355 6 3 335 325 322 324 325 325 325 324 324 325 326 326 327 325 324 323 324 326 327 325
56 30 17 16 12 12 10 1 354 348 342 347 348 350 351 349 352 352 354 3 353 350 338 324 321 322 322 322 324 324 324 326 329 328 327 327 325 323 324 325 325 323 322
47 31 24 14 1 359 358 352 342 336 330 330 338 338 344 346 351 354 1 5 342 333 332 329 325 323 323 322 321 320 320 321 323 325 325 324 322 322 321 322 323 323 323
46 16 6 8 4 356 355 358 343 334 331 332 329 327 337 349 351 345 347 346 338 329 330 327 324 322 322 319 319 321 323 323 324 323 322 322 320 318 317 318 322 323 322
40 8 358 357 357 347 344 342 332 333 332 325 319 321 337 341 331 328 330 329 324 320 321 319 318 321 322 320 319 321 321 321 322 322 320 319 319 318 316 315 317 317 321
26 10 358 349 347 344 339 328 325 323 318 314 314 315 324 337 330 322 321 322 321 319 317 316 317 319 320 319 319 320 320 320 321 321 319 317 317 316 317 319 322 326 332
41 356 343 340 340 334 335 335 332 326 318 314 316 322 328 329 325 322 320 322 322 321 323 322 320 323 323 320 317 314 310 310 312 313 315 315 316 317 319 322 327 334 341
358 333 331 330 333 335 329 326 324 320 318 316 318 319 319 316 317 319 321 322 322 323 326 324 319 317 319 322 319 315 311 310 312 309 307 307 313 317 320 325 331 337 344
12 332 321 315 314 317 318 318 320 320 316 313 314 315 316 314 313 315 314 316 317 320 321 321 320 318 316 317 317 318 319 322 324 322 313 310 314 319 325 328 338 346 356
18 333 311 302 298 299 300 303 309 310 309 310 310 308 308 308 308 310 314 318 320 320 321 321 319 318 316 317 318 320 323 328 332 331 327 319 322 330 337 343 349 3 7
Height
1488 1491 1495 1498 1500 1503 1505 1507 1509 1510 1512 1513 1514 1515 1515 1516 1516 1516 1516 1515 1515 1514 1514 1512 1511 1510 1508 1506 1505 1503 1500 1497 1491 1485 1483 1479 1475 1471 1467 1463 1459 1455 1451
1485 1488 1491 1494 1497 1499 1502 1504 1505 1507 1509 1510 1511 1511 1512 1512 1512 1512 1512 1512 1511 1511 1510 1509 1508 1506 1505 1503 1501 1498 1496 1493 1489 1483 1478 1475 1471 1467 1463 1459 1455 1451 1447
1482 1485 1488 1491 1494 1496 1498 1500 1502 1504 1505 1506 1507 1508 1508 1509 1509 1509 1509 1509 1508 1508 1507 1506 1504 1503 1501 1499 1497 1495 1492 1489 1486 1481 1475 1471 1467 1464 1459 1455 1451 1446 1442
1479 1482 1485 1488 1490 1493 1495 1497 1499 1500 1501 1502 1503 1504 1505 1505 1505 1505 1505 1505 1505 1504 1504 1503 1501 1500 1498 1496 1493 1491 1488 1485 1482 1478 1473 1468 1464 1460 1456 1451 1445 1441 1438
1477 1480 1483 1485 1488 1490 1492 1494 1496 1497 1498 1499 1500 1501 1501 1502 1502 1502 1502 1502 1501 1501 1500 1499 1498 1497 1495 1493 1491 1488 1485 1481 1478 1474 1470 1465 1461 1456 1452 1448 1443 1438 1434
1476 1478 1481 1483 1485 1487 1489 1491 1492 1494 1495 1496 1497 1497 1498 1498 1498 1499 1499 1498 1498 1497 1496 1495 1494 1493 1491 1490 1487 1485 1482 1479 1475 1471 1467 1463 1458 1455 1450 1446 1441 1435 1429
1475 1477 1479 1481 1482 1484 1486 1488 1489 1490 1491 1492 1493 1494 1494 1495 1495 1495 1495 1495 1494 1493 1493 1492 1491 1489 1488 1485 1483 1481 1478 1476 1473 1470 1465 1461 1457 1453 1448 1444 1440 1435 1430
1474 1475 1477 1479 1480 1482 1483 1485 1486 1487 1488 1489 1490 1491 1491 1492 1492 1492 1492 1491 1491 1490 1489 1488 1487 1486 1484 1482 1479 1476 1474 1471 1469 1465 1462 1458 1455 1451 1447 1443 1438 1433 1429
1473 1474 1476 1477 1478 1480 1481 1482 1483 1484 1485 1486 1487 1488 1488 1488 1489 1489 1489 1488 1487 1486 1486 1485 1484 1482 1481 1479 1475 1472 1469 1467 1465 1462 1459 1455 1452 1448 1444 1440 1435 1430 1425
1472 1473 1475 1476 1477 1478 1479 1480 1481 1482 1483 1484 1484 1485 1485 1486 1486 1486 1485 1485 1484 1483 1482 1481 1480 1479 1477 1475 1472 1469 1465 1463 1460 1457 1454 1451 1448 1444 1441 1437 1433 1429 1424
1471 1473 1474 1475 1476 1477 1477 1478 1479 1480 1481 1481 1482 1482 1483 1483 1483 1483 1482 1482 1481 1479 1478 1477 1476 1475 1473 1471 1469 1466 1463 1460 1457 1454 1450 1447 1444 1441 1438 1435 1432 1428 1424
1471 1471 1472 1473 1474 1475 1476 1477 1477 1478 1478 1479 1479 1480 1480 1480 1480 1480 1480 1479 1478 1477 1475 1474 1473 1471 1470 1467 1465 1463 1460 1457 1454 1451 1447 1444 1441 1438 1435 1432 1429 1426 1422
1470 1470 1471 1472 1473 1473 1474 1475 1475 1476 1476 1477 1477 1477 1477 1477 1477 1477 1477 1476 1475 1474 1473 1472 1470 1468 1466 1464 1462 1459 1457 1454 1451 1448 1444 1442 1439 1436 1432 1429 1426 1423 1420
1469 1470 1470 1471 1471 1472 1473 1473 1473 1474 1474 1474 1474 1475 1475 1475 1474 1474 1473 1473 1472 1471 1470 1469 1467 1466 1464 1461 1459 1456 1454 1451 1448 1446 1442 1439 1436 1433 1430 1427 1423 1420 1417
1468 1469 1469 1470 1470 1471 1471 1472 1472 1472 1473 1473 1473 1473 1473 1472 1472 1472 1471 1470 1469 1468 1467 1466 1464 1462 1460 1458 1456 1454 1451 1449 1446 1443 1440 1437 1434 1431 1428 1425 1422 1419 1416
1467 1467 1468 1468 1469 1469 1470 1470 1471 1471 1471 1471 1471 1472 1471 1471 1470 1470 1469 1468 1467 1466 1465 1463 1462 1460 1458 1456 1453 1451 1449 1446 1444 1441 1438 1435 1432 1429 1426 1424 1421 1418 1415
1466 1466 1467 1467 1467 1468 1468 1468 1468 1469 1470 1469 1469 1469 1469 1469 1468 1467 1466 1465 1464 1464 1462 1461 1459 1458 1456 1454 1451 1449 1447 1444 1442 1439 1436 1433 1431 1428 1425 1422 1420 1418 1415
1465 1466 1466 1466 1466 1466 1466 1467 1467 1467 1467 1467 1467 1467 1467 1466 1465 1465 1464 1463 1462 1461 1460 1459 1457 1456 1454 1452 1449 1447 1445 1442 1440 1437 1434 1432 1429 1427 1424 1421 1419 1417 1414
1464 1465 1465 1465 1465 1465 1465 1465 1465 1465 1465 1464 1464 1464 1464 1464 1463 1462 1461 1460 1459 1458 1458 1456 1455 1453 1451 1449 1447 1445 1443 1440 1438 1435 1433 1430 1428 1425 1423 1421 1418 1416 1414
1463 1463 1464 1463 1463 1463 1463 1463 1463 1463 1463 1462 1462 1462 1461 1461 1460 1459 1459 1458 1457 1456 1455 1454 1452 1451 1449 1447 1445 1443 1441 1438 1436 1433 1431 1429 1427 1424 1422 1420 1418 1416 1413
1462 1462 1462 1462 1462 1462 1462 1461 1461 1461 1461 1460 1460 1460 1460 1459 1458 1457 1457 1456 1455 1454 1453 1452 1450 1449 1447 1445 1443 1441 1438 1436 1434 1432 1430 1428 1426 1424 1422 1420 1418 1415 1413
1460 1460 1460 1460 1460 1460 1460 1460 1459 1459 1458 1458 1458 1457 1457 1457 1456 1455 1454 1454 1453 1452 1451 1449 1448 1446 1445 1443 1441 1439 1436 1434 1432 1430 1428 1426 1425 1423 1421 1419 1417 1415 1413
1459 1459 1458 1458 1458 1458 1458 1457 1457 1457 1456 1456 1455 1455 1454 1454 1453 1453 1452 1451 1450 1449 1448 1447 1445 1444 1442 1441 1439 1437 1435 1433 1431 1429 1427 1425 1424 1422 1421 1419 1417 1415 1413
1457 1457 1457 1456 1456 1456 1456 1456 1455 1455 1454 1454 1453 1453 1452 1452 1451 1450 1449 1448 1447 1446 1445 1444 1442 1441 1440 1438 1437 1435 1433 1432 1430 1428 1426 1425 1423 1422 1420 1419 1417 1415 1414
1454 1454 1455 1455 1454 1454 1454 1454 1453 1453 1452 1452 1451 1450 1450 1449 1448 1448 1447 1446 1445 1443 1442 1441 1440 1438 1437 1436 1434 1433 1431 1430 1428 1427 1425 1424 1423 1421 1420 1419 1417 1416 1414
1452 1452 1453 1453 1453 1452 1452 1452 1451 1451 1450 1449 1449 1448 1448 1447 1446 1445 1444 1443 1442 1441 1440 1438 1437 1436 1435 1433 1432 1431 1429 1428 1427 1425 1424 1423 1422 1421 1420 1419 1418 1416 1415